Location: Crescent
(42.8242°N, 73.7329°W)
Time: 19:37:37
(UTC+00:00)

Transit 4A - Pass Details

Date: 25 February 2026
Orbit: 864 x 977 km, 66.8° (Epoch: 10 March)

Event Time Altitude Azimuth Distance (km) Brightness Sun altitude
Rises 13:47:56 0° 335° (NNW) 3,599 10.5 21.1°
Reaches altitude 10° 13:51:20 10° 354° (N) 2,673 10.0 21.6°
Maximum altitude 13:55:36 19° 37° (NE) 2,131 9.9 22.2°
Drops below altitude 10° 13:59:54 10° 80° (E) 2,709 11.1 22.8°
Sets 14:03:21 0° 98° (E) 3,664 12.0 23.3°
